Mount Airy, NC

11:04 AM EST on December 06, 2019 (GMT -0500)
Mount Airy-Surry County

Weather History for KMWK - June, 2019

Change the Weather History Date:

Saturday, June 8, 2019

  Actual Average (WUND) Record (WUND)
Temperature  
Mean Temperature 72 °F -  
Max Temperature 77 °F - - (-1)
Min Temperature 67 °F - - (-1)
Cooling Degree Days 7    
Growing Degree Days 22 (Base 50)    
Moisture  
Dew Point 67 °F    
Average Humidity 89    
Maximum Humidity 91    
Minimum Humidity 76    
Precipitation  
Precipitation 0.01 in - - ()
Sea Level Pressure  
Sea Level Pressure 29.97 in    
Wind  
Wind Speed 10 mph ()    
Max Wind Speed 20 mph    
Max Gust Speed 29 mph    
Visibility 9.2 miles    
Events Rain    
Averages and records for this station are not official NWS values.
T = Trace of Precipitation, MM = Missing Value Source: Averaged Metar Reports

Daily Weather History Graph

Daily Weather History Graph

Search for Another Location

Airport or City:

Astronomy

Jun. 08, 2019 Rise Set
Actual Time 6:03 AM EDT 8:38 PM EDT
Civil Twilight 5:33 AM EDT 9:09 PM EDT
Nautical Twilight 4:56 AM EDT 9:46 PM EDT
Astronomical Twilight 4:14 AM EDT 10:28 PM EDT
Moon 11:26 AM EDT (6/8) 12:42 AM EDT (6/8)
Length of Visible Light 15h 35m
Length of Day
14h 34m
Waxing Crescent, 32% of the Moon is Illuminated
Jun 8
Waxing Crescent
Jun 10
First Quarter
Jun 17
Full
Jun 25
Last Quarter
Jul 2
New

Hourly Weather History & Observations

Time (EDT) Temp. Dew Point Humidity Pressure Visibility Wind Dir Wind Speed Gust Speed Precip Events Conditions
12:00 AM 69.8 °F 66.7 °F 90% 29.91 in 10.0 mi ENE 10.4 mph 20.7 mph N/A   Overcast
12:20 AM 69.8 °F 66.7 °F 90% 29.91 in 7.0 mi ENE 9.2 mph 18.4 mph N/A   Overcast
12:40 AM 69.4 °F 66.4 °F 90% 29.90 in 5.0 mi ENE 9.2 mph - N/A   Overcast
1:00 AM 69.3 °F 66.2 °F 90% 29.90 in 7.0 mi ENE 12.7 mph - N/A   Overcast
1:20 AM 69.3 °F 66.4 °F 91% 29.90 in 7.0 mi ENE 9.2 mph 17.3 mph N/A   Overcast
1:40 AM 69.3 °F 66.2 °F 90% 29.90 in 10.0 mi ENE 10.4 mph 17.3 mph N/A   Overcast
2:00 AM 69.3 °F 66.2 °F 90% 29.90 in 10.0 mi ENE 9.2 mph 19.6 mph N/A   Overcast
2:20 AM 69.3 °F 66.2 °F 90% 29.90 in 10.0 mi ENE 10.4 mph 20.7 mph N/A   Overcast
2:40 AM 69.1 °F 66.2 °F 91% 29.90 in 10.0 mi ENE 11.5 mph 18.4 mph N/A   Overcast
3:00 AM 69.3 °F 66.4 °F 91% 29.91 in 10.0 mi ENE 9.2 mph - N/A Rain Rain
3:20 AM 68.9 °F 66.2 °F 91% 29.90 in 7.0 mi ENE 12.7 mph 19.6 mph N/A Rain Light Rain
3:40 AM 68.9 °F 65.8 °F 90% 29.90 in 10.0 mi ENE 15.0 mph 19.6 mph N/A Rain Light Rain
4:00 AM 68.5 °F 65.7 °F 90% 29.89 in 10.0 mi ENE 19.6 mph 25.3 mph N/A Rain Rain
4:20 AM 68.4 °F 65.5 °F 90% 29.89 in 10.0 mi ENE 13.8 mph 17.3 mph N/A Rain Light Rain
4:40 AM 68.4 °F 65.5 °F 90% 29.90 in 10.0 mi ENE 12.7 mph 19.6 mph N/A Rain Light Rain
5:00 AM 68.5 °F 65.7 °F 90% 29.91 in 10.0 mi ENE 10.4 mph 17.3 mph N/A Rain Rain
5:20 AM 68.2 °F 65.3 °F 90% 29.92 in 7.0 mi East 9.2 mph 18.4 mph N/A Rain Light Rain
5:40 AM 68.2 °F 65.3 °F 90% 29.92 in 7.0 mi ENE 8.1 mph - N/A Rain Rain
6:00 AM 68.2 °F 65.3 °F 90% 29.92 in 7.0 mi ENE 8.1 mph - N/A Rain Rain
6:20 AM 68.2 °F 65.3 °F 90% 29.92 in 10.0 mi NE 6.9 mph - N/A Rain Light Rain
6:40 AM 68.0 °F 65.1 °F 90% 29.92 in 10.0 mi NE 5.8 mph - N/A Rain Light Rain
7:00 AM 68.0 °F 64.9 °F 90% 29.93 in 10.0 mi NNE 4.6 mph - N/A   Light Drizzle
7:20 AM 68.0 °F 64.9 °F 90% 29.94 in 10.0 mi NE 3.5 mph - N/A   Clear
7:40 AM 68.7 °F 65.7 °F 90% 29.95 in 10.0 mi Calm Calm - N/A   Clear
8:00 AM 69.3 °F 66.2 °F 90% 29.96 in 10.0 mi Calm Calm - N/A   Scattered Clouds
8:20 AM 69.8 °F 66.7 °F 90% 29.96 in 10.0 mi ENE 5.8 mph - N/A   Mostly Cloudy
8:40 AM 70.0 °F 67.1 °F 91% 29.97 in 10.0 mi ENE 5.8 mph - N/A   Mostly Cloudy
9:00 AM 71.2 °F 68.2 °F 90% 29.97 in 10.0 mi ENE 6.9 mph - N/A   Mostly Cloudy
9:20 AM 72.5 °F 68.9 °F 88% 29.97 in 10.0 mi ENE 9.2 mph - N/A   Mostly Cloudy
9:40 AM 72.5 °F 68.9 °F 88% 29.97 in 10.0 mi ENE 10.4 mph - N/A   Overcast
10:00 AM 72.5 °F 69.1 °F 89% 29.99 in 10.0 mi ENE 8.1 mph - N/A   Overcast
10:20 AM 72.5 °F 68.9 °F 88% 29.99 in 10.0 mi ENE 8.1 mph 16.1 mph N/A   Overcast
11:00 AM 72.5 °F 68.9 °F 88% 29.99 in 10.0 mi ENE 8.1 mph 17.3 mph N/A   Overcast
11:20 AM 71.6 °F 68.5 °F 90% 30.00 in 5.0 mi NE 8.1 mph - N/A Rain Light Rain
11:40 AM 71.6 °F 68.5 °F 90% 30.00 in 7.0 mi ENE 8.1 mph - N/A Rain Light Rain
12:00 PM 72.5 °F 69.3 °F 90% 30.00 in 10.0 mi ENE 8.1 mph - N/A   Mostly Cloudy
12:20 PM 72.5 °F 68.9 °F 88% 30.00 in 10.0 mi ENE 10.4 mph - N/A   Overcast
12:40 PM 73.2 °F 69.6 °F 88% 30.01 in 10.0 mi East 6.9 mph - N/A   Overcast
1:00 PM 73.8 °F 69.6 °F 87% 30.01 in 10.0 mi East 9.2 mph - N/A   Overcast
1:20 PM 74.3 °F 69.6 °F 85% 30.01 in 10.0 mi NE 11.5 mph - N/A   Mostly Cloudy
1:40 PM 75.4 °F 70.0 °F 83% 30.00 in 10.0 mi ENE 12.7 mph 18.4 mph N/A   Scattered Clouds
2:00 PM 76.8 °F 70.7 °F 81% 29.99 in 10.0 mi NE 12.7 mph 18.4 mph N/A   Scattered Clouds
2:20 PM 76.3 °F 70.2 °F 81% 29.99 in 10.0 mi ENE 13.8 mph 17.3 mph N/A   Mostly Cloudy
2:40 PM 76.5 °F 69.8 °F 80% 29.99 in 10.0 mi ENE 10.4 mph 19.6 mph N/A   Overcast
3:00 PM 77.9 °F 70.0 °F 76% 29.99 in 10.0 mi ENE 12.7 mph 20.7 mph N/A   Scattered Clouds
3:20 PM 75.6 °F 68.7 °F 79% 30.00 in 10.0 mi NE 9.2 mph - N/A   Mostly Cloudy
3:40 PM 72.0 °F 68.2 °F 88% 29.99 in 7.0 mi ENE 11.5 mph 19.6 mph N/A Rain Rain
4:00 PM 70.7 °F 67.5 °F 89% 29.99 in 10.0 mi NE 11.5 mph 18.4 mph N/A Rain Light Rain
4:20 PM 70.9 °F 67.5 °F 89% 29.99 in 10.0 mi NE 11.5 mph 17.3 mph N/A Rain Light Rain
4:40 PM 71.1 °F 67.3 °F 88% 29.99 in 10.0 mi ENE 16.1 mph 24.2 mph N/A   Scattered Clouds
5:00 PM 70.7 °F 66.2 °F 86% 29.99 in 10.0 mi ENE 12.7 mph 23.0 mph N/A   Scattered Clouds
5:20 PM 69.8 °F 65.7 °F 87% 30.00 in 10.0 mi NE 13.8 mph 26.5 mph N/A   Scattered Clouds
5:40 PM 69.3 °F 65.3 °F 87% 30.00 in 10.0 mi ENE 15.0 mph 24.2 mph N/A   Mostly Cloudy
6:00 PM 68.9 °F 64.8 °F 87% 30.00 in 10.0 mi ENE 17.3 mph 28.8 mph N/A   Mostly Cloudy
6:20 PM 69.1 °F 65.3 °F 88% 30.00 in 10.0 mi ENE 12.7 mph 21.9 mph N/A   Mostly Cloudy
6:40 PM 69.3 °F 65.5 °F 88% 30.01 in 10.0 mi ENE 13.8 mph 21.9 mph N/A   Scattered Clouds
7:00 PM 68.9 °F 65.3 °F 88% 30.01 in 10.0 mi ENE 15.0 mph 26.5 mph N/A   Mostly Cloudy
7:20 PM 68.5 °F 65.3 °F 89% 30.01 in 10.0 mi ENE 16.1 mph 27.6 mph N/A   Overcast
7:40 PM 68.0 °F 65.3 °F 91% 30.01 in 10.0 mi ENE 16.1 mph 21.9 mph N/A   Overcast
8:00 PM 68.0 °F 65.3 °F 91% 30.02 in 10.0 mi ENE 16.1 mph 20.7 mph N/A   Overcast
8:20 PM 68.0 °F 65.3 °F 91% 30.02 in 7.0 mi ENE 12.7 mph 23.0 mph N/A   Overcast
8:40 PM 67.6 °F 64.8 °F 90% 30.02 in 7.0 mi ENE 13.8 mph 23.0 mph N/A Rain Rain
9:00 PM 67.6 °F 64.8 °F 90% 30.01 in 7.0 mi ENE 18.4 mph 24.2 mph N/A Rain Light Rain
9:20 PM 68.0 °F 64.9 °F 90% 30.02 in 10.0 mi ENE 15.0 mph 25.3 mph N/A Rain Light Rain
9:40 PM 68.0 °F 65.1 °F 90% 30.02 in 10.0 mi ENE 15.0 mph 25.3 mph N/A Rain Light Rain
10:00 PM 68.0 °F 65.3 °F 91% 30.04 in 7.0 mi ENE 16.1 mph 23.0 mph N/A Rain Light Rain
10:20 PM 68.0 °F 65.3 °F 91% 30.04 in 3.0 mi ENE 12.7 mph 17.3 mph N/A Rain Heavy Rain
10:40 PM 68.4 °F 65.5 °F 90% 30.05 in 7.0 mi East 11.5 mph 20.7 mph 0.01 in Rain Light Rain
11:00 PM 68.9 °F 66.0 °F 90% 30.05 in 10.0 mi East 11.5 mph - N/A Rain Light Rain
11:20 PM 69.3 °F 66.4 °F 91% 30.05 in 10.0 mi ENE 10.4 mph 16.1 mph N/A   Overcast
11:40 PM 69.8 °F 66.7 °F 90% 30.05 in 10.0 mi ENE 11.5 mph - N/A   Overcast